Погода в Забеловке

Хотите узнать прогноз погоды в Забеловке? Тогда Вам сюда: Погода в Забеловке

Поиск расширенной информации на нашем сайте:

Полезная информация:

Новости сайта



02.01.2020
Опубликован Долгосрочный прогноз погоды по городам России и ближнего зарубежья на январь 2020 года.
Карты: Прогноз на январь и февраль 2020 года, Сравнение прогнозируемой аномалии приземной температуры воздуха на январь 2020 года по разным моделям.




Погода в Забеловке - сегодня

Время (UTC), дата Ветер
(°,м/с) 
Видим.   Явления Облачность Т
(°С)
Тd
(°С)
f(%) Тe
(°С)
Pmin
(гПа)
dP
(гПа)
Po
(мм)
O2
(г/м3)
Тmin Tmax R s Состояние
почвы
12 22.10.21 230 (ЮЗ) 20000 м    10/10 600 м 
[Sc]
+6.6 +0.8 66 +4  1011  1.1  733  288           
15 22.10.21 230 (ЮЗ) н/о    10/10 600 м 
[Sc]
+6.1 +2.7 79 +4  1011.5  0.4  733  288    +8.5       
18 22.10.21 230 (ЮЗ) н/о    10/10 600 м 
[Sc]
+6.6 +2.7 76 +4  1010.9  -0.5  733  288    +8.5       
21 22.10.21 230 (ЮЗ) н/о    10/10 600 м 
[Sc]
+7 +2.5 73 +4  1011.1  0.9  733  288           
00 23.10.21 230 (ЮЗ) 12-16{18}  н/о    ясно 
+4.9 +1.9 81 +1  1012.7  0.7  734  290           
03 23.10.21 230 (ЮЗ) 8{16}  20000 м    6/4 600 м верхняя 
[Sc|Ci sp]
+4.6 +2.1 84 +1  1014.5  1.7  735  291           
06 23.10.21 230 (ЮЗ) 20000 м    9/8 600 м верхняя 
[Sc|Ci sp]
+7.7 +4 77 +5  1015.3  1.1  736  288  +3.4         
09 23.10.21 230 (ЮЗ) 12-16{18}  20000 м    9/9 600 м 
[Sc]
+10.9 +3.4 60 +8  1015.7  0.8  737  285           
12 23.10.21 250 (З) 10-16{18}  20000 м    9/6 600 м верхняя 
[Sc|Ci sp]
+11.1 +3.4 59 +9  1017.1  1.3  738  285           
15 23.10.21 230 (ЮЗ) 10-16{18}  н/о    9/9 600 м 
[Sc]
+10.5 +4.5 66 +8  1018.4  1.2  739  286    +11.4       
18 23.10.21 200 (Ю) 8{16}  н/о    9/9 600 м 
[Sc]
+10.1 +5.3 72 +8  1018.6  0.2  739  286    +11.4       
21 23.10.21 230 (ЮЗ) н/о    9/9 600 м 
[Sc]
+9.4 +5.6 77 +7  1018.8  0.1  739  287           
00 24.10.21 180 (Ю) н/о    9/9 600 м 
[Sc]
+8.3 +5.6 83 +6  1019.3  0.3  739  288           
03 24.10.21 230 (ЮЗ) 20000 м    8/8 600 м 
[Sc]
+7.6 +5.6 87 +6  1018.7  -0.6  739  289           
06 24.10.21 230 (ЮЗ) 20000 м    9/0 верхняя 
[Ci sp]
+10.5 +5.5 71 +10  1017.4  -0.9  738  285  +7.2         
09 24.10.21 230 (ЮЗ) 20000 м    9/0 верхняя 
[Ci sp]
+13.8 +1.9 44 +13  1015.2  -1.7  737  282           
12 24.10.21 230 (ЮЗ) 12-16{18}  20000 м    6/0 верхняя 
[Ci sp]
+14.9 +0.6 38 +13  1013.8  -1.3  736  281           
15 24.10.21 200 (Ю) 6{16}  н/о    8/3 1000 м верхняя 
[Sc|Ci sp]
+10.3 -0.7 46 +9  1014.8  0.2  736  286    +15.3       
18 24.10.21 200 (Ю) н/о    9/9 600 м 
[Sc]
+9.9 +3.2 63 +9  1015.1  0.5  736  286    +15.3       
21 24.10.21 230 (ЮЗ) н/о    9/9 600 м 
[Sc]
+8 +2.9 70 +8  1014.5  -0.9  735  287           
00 25.10.21 180 (Ю) н/о  слаб. ливневой дождь  10/10 600 м кучево-дожд. 
[Cb cap]
+7.5 +5.5 87 +7  1014.8  0.3  736  288           
03 25.10.21 180 (Ю) 10 км  слаб. ливневой дождь  10/10 600 м кучево-дожд. 
[Cb cap]
+6.4 +5 91 +7  1014.6  -0.4  735  289           
06 25.10.21 180 (Ю) 4000 м  слаб. ливневой дождь  10/10 600 м кучево-дожд. 
[Cb cap]
+7.1 +6.2 94 +8  1014.8  0.3  736  288  +6.4    0.9     
09 25.10.21 180 (Ю) 10 км  слаб. ливневой дождь  10/10 600 м кучево-дожд. 
[Cb cap]
+7.7 +6.4 91 +9  1012.2  -2.3  734  286           
12 25.10.21 250 (З) 20000 м  {ливн. осадки}  10/10 600 м 
[Sc]
+8.2 +6.2 87 +8  1010.8  -1.3  733  286           
Время (UTC), дата Ветер
(°,м/с) 
Видим.   Явления Облачность Т
(°С)
Тd
(°С)
f(%) Тe
(°С)
Pmin
(гПа)
dP
(гПа)
Po
(мм)
O2
(г/м3)
Тmin Tmax R s Состояние
почвы

Для получения пояснительной информации подведите курсор к названию столбца.

ПОГОДА в Забеловке - архив

Всё, что Вы хотите узнать о погоде в Забеловке - удобно и подробно!

Выберите нужную дату (начиная с 1 января 2019* года) и нажмите кнопку "Найти".
Будут отображены архивные сводки погоды по пункту Забеловка, начиная с указанной даты.


Отображать данные в формате CSV (для использования в таблицах Excel)


Внимание! Наш архив погоды предназначен исключительно для личного некоммерческого использования в познавательных целях. Если Вам необходимы официальные справки о состоянии погоды (для производственных, юридических, коммерческих и т.п. целей), обращайтесь в органы Росгидромета.

*Примечание: данная дата относится к архиву по метеостанциям СССР (Россия, СНГ, Балтия).
Архив по метеостанциям Зарубежной Европы и Азии (кроме Китая) хранится 10 дней, по другим регионам земного шара (Китай, Африка, Америка, Австралия, Океания) - 1 день.

Забеловка - район местоположения метеостанции


Название, широта, долгота, высота метеостанции:
Забеловка 52.3°ш. 61.3°д. 279 м над ур. моря [Казахстан]

Дополнительная информация

В oтличие oт бoльшинства пoгoдных сайтoв мы публикуем пoдрoбную метеoинфoрмацию в детальнoм прoфессиoнальнoм фoрмате.

Характеристики температуры и влажнoсти вoздуха измеряются на высoте 2 м в тени вдали oт зданий и деревьев.
Скoрoсть ветра измеряется на высoте 10 м (на урoвне рoста челoвека скoрoсть ветра ниже в 1.5-2 раза). Если метеoстанция нахoдится в гoрoде или в лесу, тo скoрoсть ветра занижена на 2-4 м/с пo сравнению с oткрытым местoм. Скoрoсть ветра над акватoриями крупных рек и oзёр, а также на вершинах хoлмoв на 2-5 м/с выше, чем в oбычных услoвиях.
Атмoсфернoе давление в разных тoчках местнoсти мoжет значительнo oтличаться oт давления на метеoстанции, в зависимoсти oт услoвий рельефа (при пoдъёме на 10 м давление пoнижается примернo на 1 мм рт.ст.).